SCP
0 0 0 0 0 0 0 0 0 0 0 0 0 0 0 0 0 0 0 0 0 0 0 0 0 0 0 0 0 0 0 0 0 0 0 0 0 0 0 0 0 0 0
0 0 0 0 0 0 0 0 0 0 0 0 0 0 0 0 0 0 0 0 0 0 0 0 0 0 0 0 0 0 0 0 0 0 0 0 0 0 0 0 0 0 0
0 0 0 0 0 0 0 0 0 0 0 0 0 0 0 0 0 0 0 0 0 0 0 0 0 0 0 0 0 0 0 0 0 0 0 0 0 0 0 0 0 0 0
0 0 0 0 0 0 0 0 0 0 0 0 0 0 0 0 0 0 0 0 0 0 0 0 0 0 0 0 0 0 0 0 0 0 0 0 0 0 0 0 0 0 0
0 0 0 0 0 0 0 0 0 0 0 0 0 0 0 0 0 0 0 0 0 0 0 0 0 0 0 0 0 0 0 0 0 0 0 0 0 0 0 0 0 0 0
0 0 0 0 0 0 0 0 0 0 0 0 0 0 0 0 0 0 0 0 0 0 0 0 0 0 0 0 0 0 0 0 0 0 0 0 0 0 0 0 0 0 0
0 0 0 0 0 0 0 0 0 0 0 0 0 0 0 0 0 0 0 0 0 0 0 0 0 0 0 0 0 0 0 0 0 0 0 0 0 0 0 0 0 0 0
0 0 0 0 0 0 0 0 0 0 0 0 0 0 0 0 0 0 0 0 0 0 0 0 0 0 0 0 0 0 0 0 0 0 0 0 0 0 0 0 0 0 0
0 0 0 0 0 0 0 0 0 0 0 0 0 0 0 0 0 0 0 0 0 0 0 0 0 0 0 0 0 0 0 0 0 0 0 0 0 0 0 0 0 0 0
0 0 0 0 0 0 0 0 0 0 0 0 0 0 0 0 0 0 0 0 0 0 0 0 0 0 0 0 0 0 0 0 0 0 0 0 0 0 0 0 0 0 0
0 0 0 0 0 0 0 0 0 0 0 0 0 0 0 0 0 0 0 0 0 0 0 0 0 0 0 0 0 0 0 0 0 0 0 0 0 0 0 0 0 0 0
0 0 0 0 0 0 0 0 0 0 0 0 0 0 0 0 0 0 0 0 0 0 0 0 0 0 0 0 0 0 0 0 0 0 0 0 0 0 0 0 0 0 0
0 0 0 0 0 0 0 0 0 0 0 0 0 0 0 0 0 0 0 0 0 0 0 0 0 0 0 0 0 0 0 0 0 0 0 0 0 0 0 0 0 0 0
0 0 0 0 0 0 0 0 0 0 0 0 0 0 0 0 0 0 0 0 0 0 0 0 0 0 0 0 0 0 0 0 0 0 0 0 0 0 0 0 0 0 0
0 0 0 0 0 0 0 0 0 0 0 0 0 0 0 0 0 0 0 0 0 0 0 0 0 0 0 0 0 0 0 0 0 0 0 0 0 0 0 0 0 0 0
0 0 0 0 0 0 0 0 0 0 0 0 0 0 0 0 0 0 0 0 0 0 0 0 0 0 0 0 0 0 0 0 0 0 0 0 0 0 0 0 0 0 0
0 0 0 0 0 0 0 0 0 0 0 0 0 0 0 0 0 0 0 0 0 0 0 0 0 0 0 0 0 0 0 0 0 0 0 0 0 0 0 0 0 0 0
0 0 0 0 0 0 0 0 0 0 0 0 0 0 0 0 0 0 0 0 0 0 0 0 0 0 0 0 0 0 0 0 0 0 0 0 0 0 0 0 0 0 0
0 0 0 0 0 0 0 0 0 0 0 0 0 0 0 0 0 0 0 0 0 0 0 0 0 0 0 0 0 0 0 0 0 0 0 0 0 0 0 0 0 0 0
0 0 0 0 0 0 0 0 0 0 0 0 0 0 0 0 0 0 0 0 0 0 0 0 0 0 0 0 0 0 0 0 0 0 0 0 0 0 0 0 0 0 0
0 0 0 0 0 0 0 0 0 0 0 0 0 0 0 0 0 0 0 0 0 0 0 0 0 0 0 0 0 0 0 0 0 0 0 0 0 0 0 0 0 0 0
0 0 0 0 0 0 0 0 0 0 0 0 0 0 0 0 0 0 0 0 0 0 0 0 0 0 0 0 0 0 0 0 0 0 0 0 0 0 0 0 0 0 0
0 0 0 0 0 0 0 0 0 0 0 0 0 0 0 0 0 0 0 0 0 0 0 0 0 0 0 0 0 0 0 0 0 0 0 0 0 0 0 0 0 0 0
0 0 0 0 0 0 0 0 0 0 0 0 0 0 0 0 0 0 0 0 0 0 0 0 0 0 0 0 0 0 0 0 0 0 0 0 0 0 0 0 0 0 0
0 0 0 0 0 0 0 0 0 0 0 0 0 0 0 0 0 0 0 0 0 0 0 0 0 0 0 0 0 0 0 0 0 0 0 0 0 0 0 0 0 0 0
0 0 0 0 0 0 0 0 0 0 0 0 0 0 0 0 0 0 0 0 0 0 0 0 0 0 0 0 0 0 0 0 0 0 0 0 0 0 0 0 0 0 0
Wind_Speed_500mb
29 25 24 21 20 16 14 13 8 12 14 18 22 22 26 32 29 34 41 41 34 31 29 30 30 31 32 33 33 34 35 36 37 37 38 39 42 44 46 47 48 48 49
39 35 30 29 29 25 25 21 19 18 17 17 19 24 23 29 33 33 34 31 24 29 30 27 28 28 29 30 32 33 34 34 35 37 39 40 42 43 44 45 46 47 49
49 42 38 38 32 32 32 28 25 24 21 19 21 27 27 29 33 34 32 28 19 18 21 25 26 26 27 27 28 30 31 32 34 35 37 37 39 40 41 43 44 46 49
51 51 48 45 44 44 41 31 34 32 26 23 21 30 32 32 32 33 33 28 22 17 17 18 20 24 25 25 26 25 27 28 28 29 31 32 34 36 38 39 42 44 47
60 60 50 54 50 47 45 40 41 39 34 33 27 31 35 34 35 33 29 27 23 18 14 13 12 16 22 22 21 21 22 21 20 21 22 25 27 31 33 36 39 42 46
60 64 62 60 56 56 52 48 48 50 43 37 30 32 36 38 36 35 33 30 25 25 22 17 14 11 10 16 18 18 16 15 16 17 19 21 24 26 30 34 38 41 44
67 70 70 67 62 63 59 56 60 62 57 52 42 38 39 40 40 38 37 33 31 28 26 23 19 16 10 8 7 5 6 11 13 14 16 18 21 25 30 34 38 40 44
75 77 80 76 67 69 73 73 72 70 67 59 53 42 36 41 47 44 43 40 36 34 32 28 24 19 13 9 6 4 4 7 9 12 14 18 22 27 32 35 39 42 46
85 85 88 84 77 76 78 76 77 73 77 71 62 39 24 29 50 52 50 45 42 41 38 32 28 22 15 11 10 9 8 8 11 14 17 21 25 29 32 37 41 45 50
86 89 93 92 84 83 85 85 74 84 90 74 71 65 57 34 34 32 55 54 50 49 43 38 32 25 20 16 14 12 10 11 15 19 21 23 26 30 35 40 46 51 56
81 91 94 92 91 95 86 89 75 93 92 80 70 73 79 57 43 34 41 63 62 55 48 42 35 30 25 21 18 15 13 16 20 23 25 27 30 34 39 45 51 55 58
77 87 94 97 92 93 89 92 88 90 91 96 81 86 85 81 74 56 38 40 53 52 52 46 43 36 30 25 22 17 18 20 23 25 28 31 34 39 45 50 54 58 61
75 83 90 94 95 95 94 87 93 109 86 101 93 86 89 83 78 65 47 33 38 45 49 53 47 42 35 29 23 21 21 24 25 27 29 32 36 42 46 50 54 58 62
78 75 85 89 94 93 90 91 88 91 83 99 97 100 88 80 83 71 59 49 34 43 49 42 47 43 36 31 26 23 25 24 26 26 28 32 36 40 45 50 55 60 64
78 73 78 80 90 88 91 91 91 80 83 82 91 91 87 82 81 73 61 50 46 41 48 46 37 32 32 33 26 25 27 26 26 26 28 32 37 41 46 51 57 63 68
77 74 76 74 84 82 93 90 80 76 85 82 87 90 90 88 77 69 60 51 50 46 37 42 32 26 24 25 24 27 27 27 27 29 32 37 40 44 51 56 63 65 74
75 73 71 70 79 81 84 82 95 86 81 80 88 91 94 87 77 69 61 55 54 50 37 33 31 25 25 23 27 28 30 31 31 34 38 42 46 53 59 64 66 74 84
69 66 65 69 74 81 84 96 89 96 90 91 91 90 85 81 72 66 61 60 58 51 35 29 29 28 28 24 30 31 33 35 35 38 43 47 54 61 69 70 75 84 87
67 65 65 69 68 78 81 84 92 84 94 96 87 88 80 79 74 69 65 62 56 39 29 28 30 32 27 32 32 33 33 36 40 43 49 55 62 65 69 74 84 85 82
64 64 64 67 68 73 76 78 79 84 98 87 85 78 77 79 77 73 68 60 44 31 27 30 29 31 32 35 34 36 39 42 47 51 54 60 61 70 76 84 80 79 77
60 63 63 64 67 72 75 79 75 88 89 83 81 71 76 72 70 69 67 53 30 27 27 29 33 35 41 37 38 38 46 49 54 56 59 65 70 78 82 79 78 79 74
55 58 63 62 65 71 70 71 74 79 82 82 76 70 69 68 68 63 51 29 18 22 25 26 37 44 40 39 40 42 50 53 62 63 68 75 75 82 77 75 78 70 53
58 58 61 61 62 68 69 69 71 74 78 78 71 68 73 75 73 67 51 23 20 20 28 41 44 46 46 41 43 50 54 58 62 64 69 85 78 81 79 80 75 74 77
61 60 62 59 59 66 66 66 66 65 69 68 60 63 71 74 76 67 41 20 23 31 49 48 47 49 57 50 47 52 58 61 67 67 63 80 74 81 81 82 86 84 61
60 59 58 60 58 63 64 62 60 60 62 62 61 64 69 76 68 55 35 38 38 45 47 49 55 67 56 54 49 53 59 59 67 66 58 61 64 73 86 90 66 58 71
52 51 57 58 59 59 61 58 59 57 61 70 62 63 64 68 71 59 44 53 48 41 43 50 52 53 48 50 52 48 51 56 55 54 43 52 63 70 73 91 73 83 91
Wind_Direction_500mb
217 216 225 212 213 197 214 183 196 197 197 188 179 183 165 168 158 147 143 137 133 112 101 94 87 80 76 73 69 64 59 58 57 56 56 56 54 53 52 50 47 44 41
224 221 219 210 221 230 224 212 221 204 203 205 202 195 183 167 171 165 165 169 156 127 114 103 94 85 79 75 73 70 68 65 64 64 61 59 58 55 52 49 45 41 38
224 226 222 223 230 235 229 237 220 210 216 220 229 200 192 182 177 176 178 183 186 176 136 111 103 94 86 79 75 73 71 70 69 67 64 60 57 53 49 45 42 38 35
232 226 223 224 225 230 227 230 227 222 216 216 224 205 199 195 192 189 188 193 194 187 179 160 127 105 97 89 82 75 75 72 65 62 60 55 53 48 44 40 36 33 30
235 235 228 226 232 234 232 226 229 226 219 205 215 215 205 202 202 203 203 202 200 199 199 188 170 148 115 101 90 81 75 67 56 47 42 39 37 41 39 36 32 28 24
236 239 229 231 231 232 228 230 229 218 218 207 205 223 213 209 208 208 210 212 206 204 206 202 194 195 171 125 106 93 78 57 43 36 31 27 24 22 21 19 19 18 15
235 234 233 232 232 235 239 236 230 219 208 207 207 209 211 214 214 214 216 214 213 210 212 213 216 214 201 161 144 123 58 33 17 15 13 7 5 5 6 6 4 4 5
230 232 236 238 240 235 232 227 230 224 209 214 207 207 205 216 218 217 221 219 218 219 220 221 221 222 214 207 213 242 314 344 348 349 348 349 351 353 356 355 354 353 352
238 235 238 238 240 238 241 237 235 234 219 215 213 215 196 215 216 219 222 224 223 224 224 223 224 225 224 230 241 263 288 318 329 327 331 334 339 344 345 344 344 344 343
239 236 238 239 240 238 241 233 244 238 229 227 214 222 223 224 193 201 219 224 226 228 226 226 227 230 232 237 248 264 282 309 319 319 318 324 330 332 333 335 336 336 334
241 237 237 241 238 240 239 244 245 231 237 228 236 240 224 223 224 216 207 218 223 226 228 229 232 233 235 242 254 271 291 305 310 313 317 320 321 325 329 329 329 330 330
244 237 237 238 238 237 239 240 251 242 233 227 239 242 236 222 224 218 212 214 224 227 230 229 232 235 241 249 258 275 289 298 306 312 315 314 320 324 325 326 328 330 329
248 242 237 238 234 235 240 242 239 239 230 238 237 245 232 230 235 227 229 218 211 219 225 229 231 236 241 248 257 268 283 294 302 309 312 315 319 321 324 328 329 330 327
254 251 243 244 235 235 238 243 238 242 250 241 239 235 234 234 230 230 230 231 213 217 223 229 229 235 243 248 254 265 279 291 299 309 313 315 318 323 326 327 328 327 325
256 254 248 244 235 239 240 236 250 238 247 245 245 238 237 237 231 229 234 236 234 220 223 220 222 235 242 243 250 263 280 290 301 309 314 315 318 321 323 325 325 324 324
261 255 248 245 235 236 242 239 236 245 246 239 239 238 239 237 229 226 231 232 229 228 217 213 224 242 235 237 245 261 274 286 296 304 306 310 314 317 319 321 322 321 322
260 256 250 248 236 235 239 242 244 242 242 240 240 240 244 237 228 223 226 224 221 215 211 216 226 233 235 237 254 262 273 282 290 297 303 307 311 314 315 319 319 319 321
264 255 249 245 241 238 238 244 241 237 241 244 241 243 239 231 225 224 223 218 212 211 216 214 221 236 235 241 254 262 270 281 290 297 302 305 309 313 316 317 318 321 320
261 255 248 242 245 238 241 239 244 239 244 243 242 241 236 228 221 220 215 210 207 210 219 233 243 231 233 255 259 268 279 286 293 298 303 308 311 313 314 319 317 320 319
260 253 249 246 242 239 241 246 244 244 242 238 244 240 235 229 224 217 209 205 204 215 235 248 235 238 248 255 263 276 284 291 296 300 306 306 310 314 318 316 316 317 316
257 251 247 246 245 244 246 246 245 250 243 240 242 234 229 225 218 216 206 200 214 232 245 243 237 248 249 254 268 278 285 291 295 300 303 310 315 315 312 315 316 316 317
259 249 245 244 244 245 247 249 249 250 245 243 238 227 222 216 205 199 198 206 241 257 244 255 262 252 251 259 268 280 284 293 300 304 310 308 311 309 313 316 316 318 306
259 250 244 244 246 247 246 248 250 251 246 244 235 224 214 203 202 202 203 224 262 278 297 281 257 251 255 264 271 280 289 292 296 301 307 305 311 311 317 317 321 316 311
256 251 245 245 249 248 247 249 250 252 246 238 227 223 216 210 209 205 205 240 275 298 293 270 251 255 255 261 267 277 285 289 294 299 305 304 313 313 314 316 314 311 311
258 252 246 245 252 250 250 247 250 249 239 226 219 218 218 207 214 201 214 245 271 282 280 262 251 255 268 270 274 280 285 292 296 302 306 303 308 308 313 313 312 306 306
258 253 248 246 253 252 248 247 248 241 230 220 208 211 215 214 217 213 227 243 265 286 287 274 276 273 274 274 271 272 281 286 292 300 300 298 300 305 312 315 307 315 319
Wind_Speed_850mb
29 25 24 21 20 16 14 13 8 12 14 18 22 22 26 32 29 34 41 41 34 31 29 30 30 31 32 33 33 34 35 36 37 37 38 39 42 44 46 47 48 48 49
39 35 30 29 29 25 25 21 19 18 17 17 19 24 23 29 33 33 34 31 24 29 30 27 28 28 29 30 32 33 34 34 35 37 39 40 42 43 44 45 46 47 49
49 42 38 38 32 32 32 28 25 24 21 19 21 27 27 29 33 34 32 28 19 18 21 25 26 26 27 27 28 30 31 32 34 35 37 37 39 40 41 43 44 46 49
51 51 48 45 44 44 41 31 34 32 26 23 21 30 32 32 32 33 33 28 22 17 17 18 20 24 25 25 26 25 27 28 28 29 31 32 34 36 38 39 42 44 47
60 60 50 54 50 47 45 40 41 39 34 33 27 31 35 34 35 33 29 27 23 18 14 13 12 16 22 22 21 21 22 21 20 21 22 25 27 31 33 36 39 42 46
60 64 62 60 56 56 52 48 48 50 43 37 30 32 36 38 36 35 33 30 25 25 22 17 14 11 10 16 18 18 16 15 16 17 19 21 24 26 30 34 38 41 44
67 70 70 67 62 63 59 56 60 62 57 52 42 38 39 40 40 38 37 33 31 28 26 23 19 16 10 8 7 5 6 11 13 14 16 18 21 25 30 34 38 40 44
75 77 80 76 67 69 73 73 72 70 67 59 53 42 36 41 47 44 43 40 36 34 32 28 24 19 13 9 6 4 4 7 9 12 14 18 22 27 32 35 39 42 46
85 85 88 84 77 76 78 76 77 73 77 71 62 39 24 29 50 52 50 45 42 41 38 32 28 22 15 11 10 9 8 8 11 14 17 21 25 29 32 37 41 45 50
86 89 93 92 84 83 85 85 74 84 90 74 71 65 57 34 34 32 55 54 50 49 43 38 32 25 20 16 14 12 10 11 15 19 21 23 26 30 35 40 46 51 56
81 91 94 92 91 95 86 89 75 93 92 80 70 73 79 57 43 34 41 63 62 55 48 42 35 30 25 21 18 15 13 16 20 23 25 27 30 34 39 45 51 55 58
77 87 94 97 92 93 89 92 88 90 91 96 81 86 85 81 74 56 38 40 53 52 52 46 43 36 30 25 22 17 18 20 23 25 28 31 34 39 45 50 54 58 61
75 83 90 94 95 95 94 87 93 109 86 101 93 86 89 83 78 65 47 33 38 45 49 53 47 42 35 29 23 21 21 24 25 27 29 32 36 42 46 50 54 58 62
78 75 85 89 94 93 90 91 88 91 83 99 97 100 88 80 83 71 59 49 34 43 49 42 47 43 36 31 26 23 25 24 26 26 28 32 36 40 45 50 55 60 64
78 73 78 80 90 88 91 91 91 80 83 82 91 91 87 82 81 73 61 50 46 41 48 46 37 32 32 33 26 25 27 26 26 26 28 32 37 41 46 51 57 63 68
77 74 76 74 84 82 93 90 80 76 85 82 87 90 90 88 77 69 60 51 50 46 37 42 32 26 24 25 24 27 27 27 27 29 32 37 40 44 51 56 63 65 74
75 73 71 70 79 81 84 82 95 86 81 80 88 91 94 87 77 69 61 55 54 50 37 33 31 25 25 23 27 28 30 31 31 34 38 42 46 53 59 64 66 74 84
69 66 65 69 74 81 84 96 89 96 90 91 91 90 85 81 72 66 61 60 58 51 35 29 29 28 28 24 30 31 33 35 35 38 43 47 54 61 69 70 75 84 87
67 65 65 69 68 78 81 84 92 84 94 96 87 88 80 79 74 69 65 62 56 39 29 28 30 32 27 32 32 33 33 36 40 43 49 55 62 65 69 74 84 85 82
64 64 64 67 68 73 76 78 79 84 98 87 85 78 77 79 77 73 68 60 44 31 27 30 29 31 32 35 34 36 39 42 47 51 54 60 61 70 76 84 80 79 77
60 63 63 64 67 72 75 79 75 88 89 83 81 71 76 72 70 69 67 53 30 27 27 29 33 35 41 37 38 38 46 49 54 56 59 65 70 78 82 79 78 79 74
55 58 63 62 65 71 70 71 74 79 82 82 76 70 69 68 68 63 51 29 18 22 25 26 37 44 40 39 40 42 50 53 62 63 68 75 75 82 77 75 78 70 53
58 58 61 61 62 68 69 69 71 74 78 78 71 68 73 75 73 67 51 23 20 20 28 41 44 46 46 41 43 50 54 58 62 64 69 85 78 81 79 80 75 74 77
61 60 62 59 59 66 66 66 66 65 69 68 60 63 71 74 76 67 41 20 23 31 49 48 47 49 57 50 47 52 58 61 67 67 63 80 74 81 81 82 86 84 61
60 59 58 60 58 63 64 62 60 60 62 62 61 64 69 76 68 55 35 38 38 45 47 49 55 67 56 54 49 53 59 59 67 66 58 61 64 73 86 90 66 58 71
52 51 57 58 59 59 61 58 59 57 61 70 62 63 64 68 71 59 44 53 48 41 43 50 52 53 48 50 52 48 51 56 55 54 43 52 63 70 73 91 73 83 91
Wind_Direction_850mb
217 216 225 212 213 197 214 183 196 197 197 188 179 183 165 168 158 147 143 137 133 112 101 94 87 80 76 73 69 64 59 58 57 56 56 56 54 53 52 50 47 44 41
224 221 219 210 221 230 224 212 221 204 203 205 202 195 183 167 171 165 165 169 156 127 114 103 94 85 79 75 73 70 68 65 64 64 61 59 58 55 52 49 45 41 38
224 226 222 223 230 235 229 237 220 210 216 220 229 200 192 182 177 176 178 183 186 176 136 111 103 94 86 79 75 73 71 70 69 67 64 60 57 53 49 45 42 38 35
232 226 223 224 225 230 227 230 227 222 216 216 224 205 199 195 192 189 188 193 194 187 179 160 127 105 97 89 82 75 75 72 65 62 60 55 53 48 44 40 36 33 30
235 235 228 226 232 234 232 226 229 226 219 205 215 215 205 202 202 203 203 202 200 199 199 188 170 148 115 101 90 81 75 67 56 47 42 39 37 41 39 36 32 28 24
236 239 229 231 231 232 228 230 229 218 218 207 205 223 213 209 208 208 210 212 206 204 206 202 194 195 171 125 106 93 78 57 43 36 31 27 24 22 21 19 19 18 15
235 234 233 232 232 235 239 236 230 219 208 207 207 209 211 214 214 214 216 214 213 210 212 213 216 214 201 161 144 123 58 33 17 15 13 7 5 5 6 6 4 4 5
230 232 236 238 240 235 232 227 230 224 209 214 207 207 205 216 218 217 221 219 218 219 220 221 221 222 214 207 213 242 314 344 348 349 348 349 351 353 356 355 354 353 352
238 235 238 238 240 238 241 237 235 234 219 215 213 215 196 215 216 219 222 224 223 224 224 223 224 225 224 230 241 263 288 318 329 327 331 334 339 344 345 344 344 344 343
239 236 238 239 240 238 241 233 244 238 229 227 214 222 223 224 193 201 219 224 226 228 226 226 227 230 232 237 248 264 282 309 319 319 318 324 330 332 333 335 336 336 334
241 237 237 241 238 240 239 244 245 231 237 228 236 240 224 223 224 216 207 218 223 226 228 229 232 233 235 242 254 271 291 305 310 313 317 320 321 325 329 329 329 330 330
244 237 237 238 238 237 239 240 251 242 233 227 239 242 236 222 224 218 212 214 224 227 230 229 232 235 241 249 258 275 289 298 306 312 315 314 320 324 325 326 328 330 329
248 242 237 238 234 235 240 242 239 239 230 238 237 245 232 230 235 227 229 218 211 219 225 229 231 236 241 248 257 268 283 294 302 309 312 315 319 321 324 328 329 330 327
254 251 243 244 235 235 238 243 238 242 250 241 239 235 234 234 230 230 230 231 213 217 223 229 229 235 243 248 254 265 279 291 299 309 313 315 318 323 326 327 328 327 325
256 254 248 244 235 239 240 236 250 238 247 245 245 238 237 237 231 229 234 236 234 220 223 220 222 235 242 243 250 263 280 290 301 309 314 315 318 321 323 325 325 324 324
261 255 248 245 235 236 242 239 236 245 246 239 239 238 239 237 229 226 231 232 229 228 217 213 224 242 235 237 245 261 274 286 296 304 306 310 314 317 319 321 322 321 322
260 256 250 248 236 235 239 242 244 242 242 240 240 240 244 237 228 223 226 224 221 215 211 216 226 233 235 237 254 262 273 282 290 297 303 307 311 314 315 319 319 319 321
264 255 249 245 241 238 238 244 241 237 241 244 241 243 239 231 225 224 223 218 212 211 216 214 221 236 235 241 254 262 270 281 290 297 302 305 309 313 316 317 318 321 320
261 255 248 242 245 238 241 239 244 239 244 243 242 241 236 228 221 220 215 210 207 210 219 233 243 231 233 255 259 268 279 286 293 298 303 308 311 313 314 319 317 320 319
260 253 249 246 242 239 241 246 244 244 242 238 244 240 235 229 224 217 209 205 204 215 235 248 235 238 248 255 263 276 284 291 296 300 306 306 310 314 318 316 316 317 316
257 251 247 246 245 244 246 246 245 250 243 240 242 234 229 225 218 216 206 200 214 232 245 243 237 248 249 254 268 278 285 291 295 300 303 310 315 315 312 315 316 316 317
259 249 245 244 244 245 247 249 249 250 245 243 238 227 222 216 205 199 198 206 241 257 244 255 262 252 251 259 268 280 284 293 300 304 310 308 311 309 313 316 316 318 306
259 250 244 244 246 247 246 248 250 251 246 244 235 224 214 203 202 202 203 224 262 278 297 281 257 251 255 264 271 280 289 292 296 301 307 305 311 311 317 317 321 316 311
256 251 245 245 249 248 247 249 250 252 246 238 227 223 216 210 209 205 205 240 275 298 293 270 251 255 255 261 267 277 285 289 294 299 305 304 313 313 314 316 314 311 311
258 252 246 245 252 250 250 247 250 249 239 226 219 218 218 207 214 201 214 245 271 282 280 262 251 255 268 270 274 280 285 292 296 302 306 303 308 308 313 313 312 306 306
258 253 248 246 253 252 248 247 248 241 230 220 208 211 215 214 217 213 227 243 265 286 287 274 276 273 274 274 271 272 281 286 292 300 300 298 300 305 312 315 307 315 319